Time,TemperatureF,DewpointF,PressureIn,WindDirection,WindDirectionDegrees,WindSpeedMPH,WindSpeedGustMPH,Humidity,HourlyPrecipIn,Conditions,Clouds,dailyrainin,SoftwareType,DateUTC
2013-06-02 00:01:00,73.3,65.7,29.99,NNE,21,0.0,1.0,77,0.00,,SKC,0.00,VWS V14.00,2013-06-02 04:01:00,
2013-06-02 00:06:00,73.3,65.7,29.95,NNE,18,0.0,1.0,77,0.00,,SKC,0.00,VWS V14.00,2013-06-02 04:06:00,
2013-06-02 00:11:00,73.3,65.7,29.95,NNE,18,0.0,0.0,77,0.00,,SKC,0.00,VWS V14.00,2013-06-02 04:11:00,
2013-06-02 00:16:00,73.1,65.8,29.95,NNE,20,0.0,0.0,78,0.00,,SKC,0.00,VWS V14.00,2013-06-02 04:16:00,
2013-06-02 00:21:00,72.9,65.3,29.95,NNE,21,0.0,0.0,77,0.00,,SKC,0.00,VWS V14.00,2013-06-02 04:21:00,
2013-06-02 00:26:00,72.9,65.3,29.95,NNE,21,0.0,0.0,77,0.00,,SKC,0.00,VWS V14.00,2013-06-02 04:26:00,
2013-06-02 00:31:00,72.9,65.3,29.95,NNE,21,0.0,0.0,77,0.00,,SKC,0.00,VWS V14.00,2013-06-02 04:31:00,
2013-06-02 00:36:00,72.9,65.3,29.93,NNE,21,0.0,0.0,77,0.00,,SKC,0.00,VWS V14.00,2013-06-02 04:36:00,
2013-06-02 00:41:00,72.9,65.3,29.93,NNE,21,0.0,0.0,77,0.00,,SKC,0.00,VWS V14.00,2013-06-02 04:41:00,
2013-06-02 00:46:00,72.9,65.3,29.93,NNE,21,0.0,0.0,77,0.00,,SKC,0.00,VWS V14.00,2013-06-02 04:46:00,
2013-06-02 00:51:00,72.9,65.3,29.92,NNE,21,0.0,0.0,77,0.00,,SKC,0.00,VWS V14.00,2013-06-02 04:51:00,
2013-06-02 00:56:00,72.9,65.3,29.92,NNE,21,0.0,0.0,77,0.00,,SKC,0.00,VWS V14.00,2013-06-02 04:56:00,
2013-06-02 01:01:00,72.9,65.3,29.92,NNE,21,0.0,0.0,77,0.00,,SKC,0.00,VWS V14.00,2013-06-02 05:01:00,
2013-06-02 01:06:00,72.9,65.3,29.92,NNE,21,0.0,0.0,77,0.00,,SKC,0.00,VWS V14.00,2013-06-02 05:06:00,
2013-06-02 01:11:00,72.9,65.3,29.92,NNE,21,0.0,0.0,77,0.00,,SKC,0.00,VWS V14.00,2013-06-02 05:11:00,
2013-06-02 01:16:00,72.9,65.3,29.92,NNE,21,0.0,0.0,77,0.00,,SKC,0.00,VWS V14.00,2013-06-02 05:16:00,
2013-06-02 01:21:00,72.9,65.3,29.92,NNE,21,0.0,0.0,77,0.00,,SKC,0.00,VWS V14.00,2013-06-02 05:21:00,
2013-06-02 01:26:00,72.9,65.3,29.92,NNE,21,0.0,0.0,77,0.00,,SKC,0.00,VWS V14.00,2013-06-02 05:26:00,
2013-06-02 01:31:00,72.9,65.3,29.92,NNE,21,0.0,0.0,77,0.00,,SKC,0.00,VWS V14.00,2013-06-02 05:31:00,
2013-06-02 01:36:00,72.9,65.3,29.92,NNE,21,0.0,0.0,77,0.00,,SKC,0.00,VWS V14.00,2013-06-02 05:36:00,
2013-06-02 01:41:00,72.9,65.3,29.92,NNE,21,0.0,0.0,77,0.00,,SKC,0.00,VWS V14.00,2013-06-02 05:41:00,
2013-06-02 01:46:00,72.9,65.3,29.92,NNE,21,0.0,0.0,77,0.00,,SKC,0.00,VWS V14.00,2013-06-02 05:46:00,
2013-06-02 01:51:00,72.9,65.3,29.93,NNE,21,0.0,0.0,77,0.00,,SKC,0.00,VWS V14.00,2013-06-02 05:51:00,
2013-06-02 01:56:00,72.9,65.3,29.93,NNE,21,0.0,0.0,77,0.00,,SKC,0.00,VWS V14.00,2013-06-02 05:56:00,
2013-06-02 02:01:00,73.8,63.8,29.93,North,360,0.0,1.0,71,0.00,,SKC,0.00,VWS V14.00,2013-06-02 06:01:00,
2013-06-02 02:06:00,74.1,63.7,29.93,North,360,0.0,5.0,70,0.00,,SKC,0.00,VWS V14.00,2013-06-02 06:06:00,
2013-06-02 02:11:00,74.3,63.5,29.93,North,360,3.0,8.0,69,0.00,,SKC,0.00,VWS V14.00,2013-06-02 06:11:00,
2013-06-02 02:16:00,74.6,63.8,29.93,North,360,4.0,9.0,69,0.00,,SKC,0.00,VWS V14.00,2013-06-02 06:16:00,
2013-06-02 02:21:00,74.8,63.5,29.93,North,360,4.0,4.0,68,0.00,,SKC,0.00,VWS V14.00,2013-06-02 06:21:00,
2013-06-02 02:26:00,75.0,63.3,29.93,North,360,0.0,11.0,67,0.00,,SKC,0.00,VWS V14.00,2013-06-02 06:26:00,
2013-06-02 02:31:00,75.0,62.9,29.93,North,360,0.0,10.0,66,0.00,,SKC,0.00,VWS V14.00,2013-06-02 06:31:00,
2013-06-02 02:36:00,75.2,63.1,29.93,North,360,6.0,10.0,66,0.00,,SKC,0.00,VWS V14.00,2013-06-02 06:36:00,
2013-06-02 02:41:00,75.2,63.1,29.93,North,360,7.0,12.0,66,0.00,,SKC,0.00,VWS V14.00,2013-06-02 06:41:00,
2013-06-02 02:46:00,75.2,63.1,29.93,North,360,9.0,12.0,66,0.00,,SKC,0.00,VWS V14.00,2013-06-02 06:46:00,
2013-06-02 02:51:00,75.2,63.1,29.92,North,360,6.0,13.0,66,0.00,,SKC,0.00,VWS V14.00,2013-06-02 06:51:00,
2013-06-02 02:56:00,75.3,63.2,29.92,North,360,4.0,13.0,66,0.00,,SKC,0.00,VWS V14.00,2013-06-02 06:56:00,
2013-06-02 03:01:00,75.3,63.2,29.92,North,360,2.0,6.0,66,0.00,,SKC,0.00,VWS V14.00,2013-06-02 07:01:00,
2013-06-02 03:06:00,75.3,63.2,29.92,North,360,7.0,7.0,66,0.00,,SKC,0.00,VWS V14.00,2013-06-02 07:06:00,
2013-06-02 03:11:00,75.2,63.5,29.92,North,360,1.0,5.0,67,0.00,,SKC,0.00,VWS V14.00,2013-06-02 07:11:00,
2013-06-02 03:16:00,75.2,63.9,29.92,North,360,0.0,7.0,68,0.02,,SKC,0.02,VWS V14.00,2013-06-02 07:16:00,
2013-06-02 03:20:00,75.0,64.6,29.93,North,360,0.0,0.0,70,0.03,,SKC,0.03,VWS V14.00,2013-06-02 07:20:00,
2013-06-02 03:25:00,74.8,64.8,29.93,North,360,0.0,2.0,71,0.04,,SKC,0.04,VWS V14.00,2013-06-02 07:25:00,
2013-06-02 03:30:00,74.8,64.8,29.93,North,360,0.0,0.0,71,0.04,,SKC,0.04,VWS V14.00,2013-06-02 07:30:00,
2013-06-02 03:35:00,73.6,64.4,29.92,North,360,3.0,8.0,73,0.04,,SKC,0.04,VWS V14.00,2013-06-02 07:35:00,
2013-06-02 03:40:00,73.3,64.5,29.92,North,360,5.0,6.0,74,0.04,,SKC,0.04,VWS V14.00,2013-06-02 07:40:00,
2013-06-02 03:45:00,73.1,64.3,29.92,North,360,0.0,6.0,74,0.04,,SKC,0.04,VWS V14.00,2013-06-02 07:45:00,
2013-06-02 03:50:00,72.9,64.5,29.92,North,360,1.0,7.0,75,0.04,,SKC,0.04,VWS V14.00,2013-06-02 07:50:00,
2013-06-02 03:55:00,72.8,64.4,29.92,North,360,4.0,7.0,75,0.04,,SKC,0.04,VWS V14.00,2013-06-02 07:55:00,
2013-06-02 04:00:00,72.8,64.4,29.92,North,360,0.0,7.0,75,0.04,,SKC,0.04,VWS V14.00,2013-06-02 08:00:00,
2013-06-02 04:05:00,72.6,64.6,29.91,North,360,0.0,7.0,76,0.04,,SKC,0.04,VWS V14.00,2013-06-02 08:05:00,
2013-06-02 04:10:00,72.6,64.6,29.91,North,360,0.0,0.0,76,0.04,,SKC,0.04,VWS V14.00,2013-06-02 08:10:00,
2013-06-02 04:15:00,72.4,64.0,29.91,North,360,0.0,9.0,75,0.04,,SKC,0.04,VWS V14.00,2013-06-02 08:15:00,
2013-06-02 04:20:00,72.4,64.0,29.91,North,360,1.0,6.0,75,0.01,,SKC,0.04,VWS V14.00,2013-06-02 08:20:00,
2013-06-02 04:25:00,72.4,64.0,29.91,North,360,2.0,10.0,75,0.01,,SKC,0.04,VWS V14.00,2013-06-02 08:25:00,
2013-06-02 04:30:00,72.3,63.9,29.91,North,360,0.0,6.0,75,0.00,,SKC,0.04,VWS V14.00,2013-06-02 08:30:00,
2013-06-02 04:35:00,72.4,64.0,29.91,North,360,0.0,11.0,75,0.00,,SKC,0.04,VWS V14.00,2013-06-02 08:35:00,
2013-06-02 04:40:00,72.4,63.7,29.91,North,360,6.0,13.0,74,0.00,,SKC,0.04,VWS V14.00,2013-06-02 08:40:00,
2013-06-02 04:45:00,72.4,63.7,29.91,North,360,3.0,13.0,74,0.00,,SKC,0.04,VWS V14.00,2013-06-02 08:45:00,
2013-06-02 04:50:00,72.4,63.7,29.91,North,360,4.0,5.0,74,0.00,,SKC,0.04,VWS V14.00,2013-06-02 08:50:00,
2013-06-02 04:55:00,72.4,63.7,29.91,North,360,0.0,11.0,74,0.00,,SKC,0.04,VWS V14.00,2013-06-02 08:55:00,
2013-06-02 05:00:00,72.4,63.7,29.91,North,360,4.0,4.0,74,0.00,,SKC,0.04,VWS V14.00,2013-06-02 09:00:00,
2013-06-02 05:05:00,72.4,63.7,29.91,North,360,1.0,7.0,74,0.00,,SKC,0.04,VWS V14.00,2013-06-02 09:05:00,
2013-06-02 05:10:00,72.3,63.6,29.91,North,360,4.0,14.0,74,0.00,,SKC,0.04,VWS V14.00,2013-06-02 09:10:00,
2013-06-02 05:15:00,72.3,63.6,29.91,North,360,3.0,14.0,74,0.00,,SKC,0.04,VWS V14.00,2013-06-02 09:15:00,
2013-06-02 05:20:00,72.3,63.6,29.91,North,360,3.0,3.0,74,0.00,,SKC,0.04,VWS V14.00,2013-06-02 09:20:00,
2013-06-02 05:25:00,72.3,63.6,29.91,North,360,3.0,3.0,74,0.00,,SKC,0.04,VWS V14.00,2013-06-02 09:25:00,
2013-06-02 05:30:00,72.3,63.6,29.91,North,360,3.0,3.0,74,0.00,,SKC,0.04,VWS V14.00,2013-06-02 09:30:00,
2013-06-02 05:35:00,72.3,63.6,29.90,North,360,3.0,3.0,74,0.00,,SKC,0.04,VWS V14.00,2013-06-02 09:35:00,
2013-06-02 05:40:00,72.3,63.6,29.90,North,360,3.0,3.0,74,0.00,,SKC,0.04,VWS V14.00,2013-06-02 09:40:00,
2013-06-02 05:45:00,72.3,63.6,29.90,North,360,3.0,3.0,74,0.00,,SKC,0.04,VWS V14.00,2013-06-02 09:45:00,
2013-06-02 05:50:00,72.3,63.6,29.91,North,360,3.0,3.0,74,0.00,,SKC,0.04,VWS V14.00,2013-06-02 09:50:00,
2013-06-02 05:55:00,72.3,63.6,29.91,North,360,3.0,3.0,74,0.00,,SKC,0.04,VWS V14.00,2013-06-02 09:55:00,
2013-06-02 06:00:00,72.3,63.6,29.91,North,360,3.0,3.0,74,0.00,,SKC,0.04,VWS V14.00,2013-06-02 10:00:00,
2013-06-02 06:05:00,72.3,63.6,29.91,North,360,3.0,3.0,74,0.00,,SKC,0.04,VWS V14.00,2013-06-02 10:05:00,
2013-06-02 06:10:00,72.3,63.6,29.91,North,360,3.0,3.0,74,0.00,,SKC,0.04,VWS V14.00,2013-06-02 10:10:00,
2013-06-02 06:15:00,72.3,63.6,29.91,North,360,3.0,3.0,74,0.00,,SKC,0.04,VWS V14.00,2013-06-02 10:15:00,
2013-06-02 06:20:00,72.3,63.6,29.90,North,360,3.0,3.0,74,0.00,,SKC,0.04,VWS V14.00,2013-06-02 10:20:00,
2013-06-02 06:25:00,72.3,63.6,29.90,North,360,3.0,3.0,74,0.00,,SKC,0.04,VWS V14.00,2013-06-02 10:25:00,
2013-06-02 06:30:00,72.3,63.6,29.90,North,360,3.0,3.0,74,0.00,,SKC,0.04,VWS V14.00,2013-06-02 10:30:00,
2013-06-02 06:35:00,72.3,63.6,29.91,North,360,3.0,3.0,74,0.00,,SKC,0.04,VWS V14.00,2013-06-02 10:35:00,
2013-06-02 06:40:00,72.3,63.6,29.91,North,360,3.0,3.0,74,0.00,,SKC,0.04,VWS V14.00,2013-06-02 10:40:00,
2013-06-02 06:45:00,72.3,63.9,29.91,North,360,4.0,5.0,75,0.00,,SKC,0.04,VWS V14.00,2013-06-02 10:45:00,
2013-06-02 06:50:00,71.9,63.5,29.91,North,360,0.0,10.0,75,0.00,,SKC,0.04,VWS V14.00,2013-06-02 10:50:00,
2013-06-02 06:55:00,71.9,63.5,29.91,North,360,6.0,14.0,75,0.00,,SKC,0.04,VWS V14.00,2013-06-02 10:55:00,
2013-06-02 07:00:00,71.9,63.5,29.91,North,360,7.0,10.0,75,0.00,,SKC,0.04,VWS V14.00,2013-06-02 11:00:00,
2013-06-02 07:05:00,71.9,63.9,29.91,North,360,6.0,10.0,76,0.00,,SKC,0.04,VWS V14.00,2013-06-02 11:05:00,
2013-06-02 07:10:00,71.9,63.9,29.91,North,360,7.0,10.0,76,0.00,,SKC,0.04,VWS V14.00,2013-06-02 11:10:00,
2013-06-02 07:15:00,71.9,63.9,29.91,North,360,5.0,10.0,76,0.00,,SKC,0.04,VWS V14.00,2013-06-02 11:15:00,
2013-06-02 07:20:00,71.9,63.9,29.92,North,360,0.0,7.0,76,0.00,,SKC,0.04,VWS V14.00,2013-06-02 11:20:00,
2013-06-02 07:25:00,71.9,63.9,29.92,North,360,2.0,7.0,76,0.00,,SKC,0.04,VWS V14.00,2013-06-02 11:25:00,
2013-06-02 07:30:00,71.9,63.9,29.92,North,360,4.0,6.0,76,0.00,,SKC,0.04,VWS V14.00,2013-06-02 11:30:00,
2013-06-02 07:35:00,72.1,64.1,29.92,North,360,0.0,9.0,76,0.00,,SKC,0.04,VWS V14.00,2013-06-02 11:35:00,
2013-06-02 07:40:00,72.1,64.1,29.92,North,360,0.0,8.0,76,0.00,,SKC,0.04,VWS V14.00,2013-06-02 11:40:00,
2013-06-02 07:45:00,72.3,64.3,29.92,North,360,5.0,8.0,76,0.00,,SKC,0.04,VWS V14.00,2013-06-02 11:45:00,
2013-06-02 07:50:00,72.6,64.2,29.92,North,360,2.0,4.0,75,0.00,,SKC,0.04,VWS V14.00,2013-06-02 11:50:00,
2013-06-02 07:55:00,72.8,64.4,29.92,North,360,0.0,7.0,75,0.00,,SKC,0.04,VWS V14.00,2013-06-02 11:55:00,
2013-06-02 08:00:00,73.1,64.7,29.92,North,360,8.0,8.0,75,0.00,,SKC,0.04,VWS V14.00,2013-06-02 12:00:00,
2013-06-02 08:05:00,73.4,64.6,29.91,North,360,0.0,11.0,74,0.00,,SKC,0.04,VWS V14.00,2013-06-02 12:05:00,
2013-06-02 08:10:00,74.0,64.4,29.91,North,360,1.0,13.0,72,0.00,,SKC,0.04,VWS V14.00,2013-06-02 12:10:00,
2013-06-02 08:15:00,74.5,64.5,29.91,North,360,4.0,13.0,71,0.00,,SKC,0.04,VWS V14.00,2013-06-02 12:15:00,
2013-06-02 08:20:00,74.8,64.4,29.90,North,360,3.0,10.0,70,0.00,,SKC,0.04,VWS V14.00,2013-06-02 12:20:00,
2013-06-02 08:25:00,75.0,64.6,29.90,North,360,3.0,10.0,70,0.00,,SKC,0.04,VWS V14.00,2013-06-02 12:25:00,
2013-06-02 08:30:00,75.0,64.2,29.90,North,360,10.0,12.0,69,0.00,,SKC,0.04,VWS V14.00,2013-06-02 12:30:00,
2013-06-02 08:35:00,75.0,64.2,29.91,North,360,4.0,13.0,69,0.00,,SKC,0.04,VWS V14.00,2013-06-02 12:35:00,
2013-06-02 08:40:00,74.8,64.0,29.91,North,360,0.0,4.0,69,0.00,,SKC,0.04,VWS V14.00,2013-06-02 12:40:00,
2013-06-02 08:45:00,74.6,64.6,29.91,North,360,0.0,6.0,71,0.00,,SKC,0.04,VWS V14.00,2013-06-02 12:45:00,
2013-06-02 08:50:00,74.6,64.6,29.91,North,360,0.0,5.0,71,0.00,,SKC,0.04,VWS V14.00,2013-06-02 12:50:00,
2013-06-02 08:55:00,74.5,64.5,29.91,North,360,0.0,9.0,71,0.00,,SKC,0.04,VWS V14.00,2013-06-02 12:55:00,
2013-06-02 09:00:00,74.5,64.9,29.91,North,360,0.0,5.0,72,0.00,,SKC,0.04,VWS V14.00,2013-06-02 13:00:00,
2013-06-02 09:05:00,74.3,64.7,29.91,North,360,3.0,9.0,72,0.00,,SKC,0.04,VWS V14.00,2013-06-02 13:05:00,
2013-06-02 09:10:00,74.3,64.7,29.91,North,360,0.0,0.0,72,0.00,,SKC,0.04,VWS V14.00,2013-06-02 13:10:00,
2013-06-02 09:15:00,74.3,64.7,29.91,North,360,0.0,0.0,72,0.00,,SKC,0.04,VWS V14.00,2013-06-02 13:15:00,
2013-06-02 09:20:00,74.5,64.9,29.91,North,360,3.0,10.0,72,0.00,,SKC,0.04,VWS V14.00,2013-06-02 13:20:00,
2013-06-02 09:25:00,74.6,65.0,29.91,North,360,0.0,10.0,72,0.00,,SKC,0.04,VWS V14.00,2013-06-02 13:25:00,
2013-06-02 09:30:00,74.8,64.8,29.91,North,360,5.0,5.0,71,0.00,,SKC,0.04,VWS V14.00,2013-06-02 13:30:00,
2013-06-02 09:35:00,75.0,65.0,29.91,North,360,0.0,10.0,71,0.00,,SKC,0.04,VWS V14.00,2013-06-02 13:35:00,
2013-06-02 09:40:00,75.2,65.2,29.91,North,360,2.0,5.0,71,0.00,,SKC,0.04,VWS V14.00,2013-06-02 13:40:00,
2013-06-02 09:45:00,75.3,65.3,29.91,North,360,0.0,9.0,71,0.00,,SKC,0.04,VWS V14.00,2013-06-02 13:45:00,
2013-06-02 09:50:00,75.7,65.2,29.91,North,360,4.0,6.0,70,0.00,,SKC,0.04,VWS V14.00,2013-06-02 13:50:00,
2013-06-02 09:55:00,75.8,65.3,29.91,North,360,0.0,9.0,70,0.00,,SKC,0.04,VWS V14.00,2013-06-02 13:55:00,
2013-06-02 10:00:00,76.4,65.5,29.91,North,360,0.0,0.0,69,0.00,,SKC,0.04,VWS V14.00,2013-06-02 14:00:00,
2013-06-02 10:05:00,76.7,64.9,29.91,North,360,3.0,6.0,67,0.00,,SKC,0.04,VWS V14.00,2013-06-02 14:05:00,
2013-06-02 10:10:00,76.9,65.1,29.91,North,360,0.0,5.0,67,0.00,,SKC,0.04,VWS V14.00,2013-06-02 14:10:00,
2013-06-02 10:15:00,76.9,65.1,29.91,North,360,1.0,5.0,67,0.00,,SKC,0.04,VWS V14.00,2013-06-02 14:15:00,
2013-06-02 10:20:00,77.2,65.4,29.91,North,360,0.0,3.0,67,0.00,,SKC,0.04,VWS V14.00,2013-06-02 14:20:00,
2013-06-02 10:25:00,77.2,65.4,29.91,North,360,3.0,6.0,67,0.00,,SKC,0.04,VWS V14.00,2013-06-02 14:25:00,
2013-06-02 10:30:00,77.8,65.5,29.91,North,360,0.0,4.0,66,0.00,,SKC,0.04,VWS V14.00,2013-06-02 14:30:00,
2013-06-02 10:35:00,77.9,65.6,29.91,North,360,0.0,7.0,66,0.00,,SKC,0.04,VWS V14.00,2013-06-02 14:35:00,
2013-06-02 10:40:00,78.1,65.4,29.91,North,360,0.0,0.0,65,0.00,,SKC,0.04,VWS V14.00,2013-06-02 14:40:00,
2013-06-02 10:45:00,78.3,65.6,29.91,North,360,5.0,5.0,65,0.00,,SKC,0.04,VWS V14.00,2013-06-02 14:45:00,
2013-06-02 10:50:00,78.3,65.1,29.91,North,360,0.0,0.0,64,0.00,,SKC,0.04,VWS V14.00,2013-06-02 14:50:00,
2013-06-02 10:55:00,78.5,65.3,29.91,North,360,0.0,3.0,64,0.00,,SKC,0.04,VWS V14.00,2013-06-02 14:55:00,
2013-06-02 11:00:00,78.6,65.0,29.91,North,360,0.0,0.0,63,0.00,,SKC,0.04,VWS V14.00,2013-06-02 15:00:00,
2013-06-02 11:05:00,79.0,65.3,29.90,North,360,0.0,4.0,63,0.00,,SKC,0.04,VWS V14.00,2013-06-02 15:05:00,
2013-06-02 11:10:00,79.9,65.3,29.90,North,360,0.0,7.0,61,0.00,,SKC,0.04,VWS V14.00,2013-06-02 15:10:00,
2013-06-02 11:15:00,80.8,65.2,29.90,North,360,0.0,7.0,59,0.00,,SKC,0.04,VWS V14.00,2013-06-02 15:15:00,
2013-06-02 11:20:00,81.9,65.2,29.89,North,360,0.0,1.0,57,0.00,,SKC,0.04,VWS V14.00,2013-06-02 15:20:00,
2013-06-02 11:25:00,82.4,64.6,29.89,North,360,8.0,11.0,55,0.00,,SKC,0.04,VWS V14.00,2013-06-02 15:25:00,
2013-06-02 11:30:00,82.4,64.6,29.89,North,360,0.0,0.0,55,0.00,,SKC,0.04,VWS V14.00,2013-06-02 15:30:00,
2013-06-02 11:35:00,82.4,65.1,29.90,North,360,0.0,6.0,56,0.00,,SKC,0.04,VWS V14.00,2013-06-02 15:35:00,
2013-06-02 11:40:00,82.3,65.1,29.90,North,360,9.0,10.0,56,0.00,,SKC,0.04,VWS V14.00,2013-06-02 15:40:00,
2013-06-02 11:45:00,82.3,65.1,29.90,North,360,2.0,10.0,56,0.00,,SKC,0.04,VWS V14.00,2013-06-02 15:45:00,
2013-06-02 11:50:00,82.1,64.3,29.90,North,360,0.0,1.0,55,0.00,,SKC,0.04,VWS V14.00,2013-06-02 15:50:00,
2013-06-02 11:55:00,81.9,64.7,29.90,North,360,2.0,5.0,56,0.00,,SKC,0.04,VWS V14.00,2013-06-02 15:55:00,
2013-06-02 12:00:00,81.9,64.7,29.90,North,360,2.0,2.0,56,0.00,,SKC,0.04,VWS V14.00,2013-06-02 16:00:00,
2013-06-02 12:05:00,81.9,64.7,29.89,North,360,2.0,2.0,56,0.00,,SKC,0.04,VWS V14.00,2013-06-02 16:05:00,
2013-06-02 12:10:00,81.9,64.7,29.89,North,360,2.0,2.0,56,0.00,,SKC,0.04,VWS V14.00,2013-06-02 16:10:00,
2013-06-02 12:15:00,81.9,64.7,29.89,North,360,2.0,2.0,56,0.00,,SKC,0.04,VWS V14.00,2013-06-02 16:15:00,
2013-06-02 12:20:00,81.9,64.7,29.91,North,360,2.0,2.0,56,0.00,,SKC,0.04,VWS V14.00,2013-06-02 16:20:00,
2013-06-02 12:25:00,81.9,64.7,29.91,North,360,2.0,2.0,56,0.00,,SKC,0.04,VWS V14.00,2013-06-02 16:25:00,
2013-06-02 12:30:00,81.9,64.7,29.91,North,360,2.0,2.0,56,0.00,,SKC,0.04,VWS V14.00,2013-06-02 16:30:00,
2013-06-02 12:35:00,81.9,64.7,29.95,North,360,2.0,2.0,56,0.00,,SKC,0.04,VWS V14.00,2013-06-02 16:35:00,
2013-06-02 12:40:00,81.9,64.7,29.95,North,360,2.0,2.0,56,0.00,,SKC,0.04,VWS V14.00,2013-06-02 16:40:00,
2013-06-02 12:45:00,81.9,64.7,29.95,North,360,2.0,2.0,56,0.00,,SKC,0.04,VWS V14.00,2013-06-02 16:45:00,
2013-06-02 12:50:00,81.9,64.7,29.95,North,360,2.0,2.0,56,0.00,,SKC,0.04,VWS V14.00,2013-06-02 16:50:00,
2013-06-02 12:55:00,81.9,64.7,29.95,North,360,2.0,2.0,56,0.00,,SKC,0.04,VWS V14.00,2013-06-02 16:55:00,
2013-06-02 13:00:00,81.9,64.7,29.95,North,360,2.0,2.0,56,0.00,,SKC,0.04,VWS V14.00,2013-06-02 17:00:00,
2013-06-02 13:04:00,81.9,64.7,29.95,North,360,2.0,2.0,56,0.00,,SKC,0.04,VWS V14.00,2013-06-02 17:04:00,
2013-06-02 13:09:00,81.9,64.7,29.95,North,360,2.0,2.0,56,0.00,,SKC,0.04,VWS V14.00,2013-06-02 17:09:00,
2013-06-02 13:14:00,81.9,64.7,29.95,North,360,2.0,2.0,56,0.00,,SKC,0.04,VWS V14.00,2013-06-02 17:14:00,
2013-06-02 13:19:00,81.9,64.7,29.95,North,360,2.0,2.0,56,0.00,,SKC,0.04,VWS V14.00,2013-06-02 17:19:00,
2013-06-02 13:24:00,81.9,64.7,29.95,North,360,2.0,2.0,56,0.00,,SKC,0.04,VWS V14.00,2013-06-02 17:24:00,
2013-06-02 13:29:00,81.9,64.7,29.95,North,360,2.0,2.0,56,0.00,,SKC,0.04,VWS V14.00,2013-06-02 17:29:00,
2013-06-02 13:34:00,85.7,64.4,29.86,North,360,7.0,7.0,49,0.00,,SKC,0.04,VWS V14.00,2013-06-02 17:34:00,
2013-06-02 13:39:00,85.3,64.6,29.86,North,360,10.0,10.0,50,0.00,,SKC,0.04,VWS V14.00,2013-06-02 17:39:00,
2013-06-02 13:44:00,85.3,64.6,29.86,North,360,3.0,11.0,50,0.00,,SKC,0.04,VWS V14.00,2013-06-02 17:44:00,
2013-06-02 13:49:00,85.3,64.6,29.85,North,360,4.0,10.0,50,0.00,,SKC,0.04,VWS V14.00,2013-06-02 17:49:00,
2013-06-02 13:54:00,85.1,64.4,29.85,North,360,0.0,12.0,50,0.00,,SKC,0.04,VWS V14.00,2013-06-02 17:54:00,
2013-06-02 13:59:00,84.9,64.2,29.85,North,360,9.0,11.0,50,0.00,,SKC,0.04,VWS V14.00,2013-06-02 17:59:00,
2013-06-02 14:04:00,84.5,63.3,29.84,North,360,0.0,11.0,49,0.00,,SKC,0.04,VWS V14.00,2013-06-02 18:04:00,
2013-06-02 14:09:00,84.3,63.1,29.84,North,360,9.0,13.0,49,0.00,,SKC,0.04,VWS V14.00,2013-06-02 18:09:00,
2013-06-02 14:14:00,84.3,63.7,29.84,North,360,0.0,13.0,50,0.00,,SKC,0.04,VWS V14.00,2013-06-02 18:14:00,
2013-06-02 14:19:00,85.5,63.6,29.84,North,360,5.0,10.0,48,0.00,,SKC,0.04,VWS V14.00,2013-06-02 18:19:00,
2013-06-02 14:24:00,87.0,65.0,29.84,North,360,0.0,10.0,48,0.00,,SKC,0.04,VWS V14.00,2013-06-02 18:24:00,
2013-06-02 14:29:00,89.2,63.1,29.84,North,360,3.0,7.0,42,0.00,,SKC,0.04,VWS V14.00,2013-06-02 18:29:00,
2013-06-02 14:34:00,89.5,62.7,29.83,North,360,0.0,10.0,41,0.00,,SKC,0.04,VWS V14.00,2013-06-02 18:34:00,
2013-06-02 14:39:00,89.5,62.7,29.83,North,360,0.0,0.0,41,0.00,,SKC,0.04,VWS V14.00,2013-06-02 18:39:00,
2013-06-02 14:44:00,88.6,63.3,29.83,North,360,3.0,6.0,43,0.00,,SKC,0.04,VWS V14.00,2013-06-02 18:44:00,
2013-06-02 14:49:00,88.2,62.2,29.83,North,360,5.0,11.0,42,0.00,,SKC,0.04,VWS V14.00,2013-06-02 18:49:00,
2013-06-02 14:54:00,87.6,62.4,29.83,North,360,5.0,11.0,43,0.00,,SKC,0.04,VWS V14.00,2013-06-02 18:54:00,
2013-06-02 14:59:00,86.8,62.3,29.83,North,360,2.0,3.0,44,0.00,,SKC,0.04,VWS V14.00,2013-06-02 18:59:00,
2013-06-02 15:04:00,86.3,63.1,29.83,North,360,4.0,11.0,46,0.00,,SKC,0.04,VWS V14.00,2013-06-02 19:04:00,
2013-06-02 15:09:00,85.5,63.0,29.83,North,360,0.0,2.0,47,0.00,,SKC,0.04,VWS V14.00,2013-06-02 19:09:00,
2013-06-02 15:14:00,85.1,62.6,29.83,North,360,0.0,10.0,47,0.00,,SKC,0.04,VWS V14.00,2013-06-02 19:14:00,
2013-06-02 15:19:00,84.9,63.0,29.82,North,360,0.0,0.0,48,0.00,,SKC,0.04,VWS V14.00,2013-06-02 19:19:00,
2013-06-02 15:24:00,84.5,63.3,29.82,North,360,0.0,0.0,49,0.00,,SKC,0.04,VWS V14.00,2013-06-02 19:24:00,
2013-06-02 15:29:00,84.5,63.3,29.82,North,360,0.0,0.0,49,0.00,,SKC,0.04,VWS V14.00,2013-06-02 19:29:00,
2013-06-02 15:34:00,84.5,63.8,29.85,North,360,2.0,4.0,50,0.00,,SKC,0.04,VWS V14.00,2013-06-02 19:34:00,
2013-06-02 15:39:00,84.5,63.8,29.85,North,360,23.0,23.0,50,0.00,,SKC,0.04,VWS V14.00,2013-06-02 19:39:00,
2013-06-02 15:44:00,73.6,62.8,29.85,North,360,17.0,25.0,69,0.14,,SKC,0.18,VWS V14.00,2013-06-02 19:44:00,
2013-06-02 15:49:00,72.6,62.3,29.85,North,360,6.0,6.0,70,0.14,,SKC,0.18,VWS V14.00,2013-06-02 19:49:00,
2013-06-02 15:54:00,72.6,62.3,29.85,North,360,6.0,6.0,70,0.14,,SKC,0.18,VWS V14.00,2013-06-02 19:54:00,
2013-06-02 15:59:00,71.4,62.3,29.85,North,360,2.0,7.0,73,0.18,,SKC,0.22,VWS V14.00,2013-06-02 19:59:00,
2013-06-02 16:04:00,71.3,62.6,29.86,North,360,0.0,7.0,74,0.18,,SKC,0.22,VWS V14.00,2013-06-02 20:04:00,
2013-06-02 16:09:00,71.3,62.6,29.86,North,360,0.0,0.0,74,0.18,,SKC,0.22,VWS V14.00,2013-06-02 20:09:00,
2013-06-02 16:14:00,70.9,62.2,29.86,North,360,0.0,0.0,74,0.23,,SKC,0.27,VWS V14.00,2013-06-02 20:14:00,
2013-06-02 16:19:00,70.9,62.2,29.86,North,360,0.0,0.0,74,0.23,,SKC,0.27,VWS V14.00,2013-06-02 20:19:00,
2013-06-02 16:24:00,70.9,62.2,29.86,North,360,0.0,0.0,74,0.23,,SKC,0.27,VWS V14.00,2013-06-02 20:24:00,
2013-06-02 16:29:00,70.9,62.2,29.86,North,360,0.0,0.0,74,0.23,,SKC,0.27,VWS V14.00,2013-06-02 20:29:00,
2013-06-02 16:34:00,70.9,62.2,29.86,North,360,0.0,0.0,74,0.23,,SKC,0.27,VWS V14.00,2013-06-02 20:34:00,
2013-06-02 16:39:00,70.9,62.2,29.86,North,360,0.0,0.0,74,0.23,,SKC,0.27,VWS V14.00,2013-06-02 20:39:00,
2013-06-02 16:44:00,70.9,62.2,29.86,North,360,0.0,0.0,74,0.23,,SKC,0.27,VWS V14.00,2013-06-02 20:44:00,
2013-06-02 16:49:00,70.9,62.2,29.86,North,360,0.0,0.0,74,0.23,,SKC,0.27,VWS V14.00,2013-06-02 20:49:00,
2013-06-02 16:54:00,73.3,65.3,29.82,North,360,0.0,0.0,76,0.24,,SKC,0.28,VWS V14.00,2013-06-02 20:54:00,
2013-06-02 16:59:00,73.3,65.7,29.82,North,360,0.0,0.0,77,0.06,,SKC,0.28,VWS V14.00,2013-06-02 20:59:00,
2013-06-02 17:04:00,73.6,66.3,29.82,North,360,2.0,3.0,78,0.06,,SKC,0.28,VWS V14.00,2013-06-02 21:04:00,
2013-06-02 17:09:00,74.1,66.8,29.82,North,360,1.0,3.0,78,0.06,,SKC,0.28,VWS V14.00,2013-06-02 21:09:00,
2013-06-02 17:14:00,74.3,66.2,29.82,North,360,0.0,3.0,76,0.06,,SKC,0.28,VWS V14.00,2013-06-02 21:14:00,
2013-06-02 17:19:00,75.5,65.8,29.82,North,360,2.0,2.0,72,0.00,,SKC,0.28,VWS V14.00,2013-06-02 21:19:00,
2013-06-02 17:24:00,76.0,66.7,29.82,North,360,3.0,6.0,73,0.00,,SKC,0.28,VWS V14.00,2013-06-02 21:24:00,
2013-06-02 17:29:00,76.4,66.7,29.82,North,360,3.0,5.0,72,0.00,,SKC,0.28,VWS V14.00,2013-06-02 21:29:00,
2013-06-02 17:34:00,76.4,66.3,29.83,North,360,1.0,6.0,71,0.00,,SKC,0.28,VWS V14.00,2013-06-02 21:34:00,
2013-06-02 17:39:00,76.0,66.3,29.83,North,360,4.0,5.0,72,0.00,,SKC,0.28,VWS V14.00,2013-06-02 21:39:00,
2013-06-02 17:44:00,75.7,66.4,29.83,North,360,3.0,5.0,73,0.00,,SKC,0.28,VWS V14.00,2013-06-02 21:44:00,
2013-06-02 17:49:00,75.7,66.4,29.83,North,360,0.0,0.0,73,0.00,,SKC,0.28,VWS V14.00,2013-06-02 21:49:00,
2013-06-02 17:54:00,75.7,66.0,29.83,North,360,0.0,5.0,72,0.00,,SKC,0.28,VWS V14.00,2013-06-02 21:54:00,
2013-06-02 17:59:00,75.5,65.8,29.83,North,360,1.0,1.0,72,0.00,,SKC,0.28,VWS V14.00,2013-06-02 21:59:00,
2013-06-02 18:04:00,75.3,66.1,29.83,North,360,5.0,7.0,73,0.00,,SKC,0.28,VWS V14.00,2013-06-02 22:04:00,
2013-06-02 18:09:00,75.3,66.4,29.83,North,360,0.0,0.0,74,0.00,,SKC,0.28,VWS V14.00,2013-06-02 22:09:00,
2013-06-02 18:14:00,75.3,66.4,29.83,North,360,0.0,0.0,74,0.00,,SKC,0.28,VWS V14.00,2013-06-02 22:14:00,
2013-06-02 18:19:00,75.3,66.4,29.89,North,360,0.0,0.0,74,0.00,,SKC,0.28,VWS V14.00,2013-06-02 22:19:00,
2013-06-02 18:24:00,75.3,66.4,29.89,North,360,0.0,0.0,74,0.00,,SKC,0.28,VWS V14.00,2013-06-02 22:24:00,
2013-06-02 18:29:00,75.3,66.4,29.89,North,360,0.0,0.0,74,0.00,,SKC,0.28,VWS V14.00,2013-06-02 22:29:00,
2013-06-02 18:34:00,75.3,66.4,29.85,North,360,0.0,0.0,74,0.00,,SKC,0.28,VWS V14.00,2013-06-02 22:34:00,
2013-06-02 18:39:00,75.3,66.4,29.85,North,360,0.0,0.0,74,0.00,,SKC,0.28,VWS V14.00,2013-06-02 22:39:00,
2013-06-02 18:44:00,75.3,66.4,29.85,North,360,0.0,0.0,74,0.00,,SKC,0.28,VWS V14.00,2013-06-02 22:44:00,
2013-06-02 18:49:00,75.3,66.4,29.85,North,360,0.0,0.0,74,0.00,,SKC,0.28,VWS V14.00,2013-06-02 22:49:00,
2013-06-02 18:54:00,75.3,66.4,29.85,North,360,0.0,0.0,74,0.00,,SKC,0.28,VWS V14.00,2013-06-02 22:54:00,
2013-06-02 18:59:00,75.3,66.4,29.85,North,360,0.0,0.0,74,0.00,,SKC,0.28,VWS V14.00,2013-06-02 22:59:00,
2013-06-02 19:04:00,75.3,66.4,29.86,North,360,0.0,0.0,74,0.00,,SKC,0.28,VWS V14.00,2013-06-02 23:04:00,
2013-06-02 19:09:00,72.4,65.9,29.86,North,360,4.0,5.0,80,0.30,,SKC,0.58,VWS V14.00,2013-06-02 23:09:00,
2013-06-02 19:14:00,72.4,66.2,29.86,North,360,4.0,6.0,81,0.32,,SKC,0.60,VWS V14.00,2013-06-02 23:14:00,
2013-06-02 19:19:00,72.1,66.3,29.85,North,360,5.0,9.0,82,0.40,,SKC,0.68,VWS V14.00,2013-06-02 23:19:00,
2013-06-02 19:24:00,72.1,66.3,29.85,North,360,3.0,10.0,82,0.41,,SKC,0.69,VWS V14.00,2013-06-02 23:24:00,
2013-06-02 19:29:00,71.9,66.1,29.85,North,360,1.0,1.0,82,0.41,,SKC,0.69,VWS V14.00,2013-06-02 23:29:00,
2013-06-02 19:34:00,71.9,66.5,29.85,North,360,3.0,10.0,83,0.41,,SKC,0.69,VWS V14.00,2013-06-02 23:34:00,
2013-06-02 19:39:00,71.9,66.5,29.85,North,360,3.0,3.0,83,0.41,,SKC,0.69,VWS V14.00,2013-06-02 23:39:00,
2013-06-02 19:44:00,71.9,66.5,29.85,North,360,3.0,3.0,83,0.41,,SKC,0.69,VWS V14.00,2013-06-02 23:44:00,
2013-06-02 19:49:00,71.9,66.5,29.85,North,360,3.0,3.0,83,0.41,,SKC,0.69,VWS V14.00,2013-06-02 23:49:00,
2013-06-02 19:54:00,71.9,66.5,29.85,North,360,3.0,3.0,83,0.41,,SKC,0.69,VWS V14.00,2013-06-02 23:54:00,
2013-06-02 19:59:00,71.9,66.5,29.85,North,360,3.0,3.0,83,0.41,,SKC,0.69,VWS V14.00,2013-06-02 23:59:00,
2013-06-02 20:04:00,71.9,66.5,29.85,North,360,3.0,3.0,83,0.41,,SKC,0.69,VWS V14.00,2013-06-03 00:04:00,
2013-06-02 20:09:00,71.9,66.5,29.85,North,360,3.0,3.0,83,0.11,,SKC,0.69,VWS V14.00,2013-06-03 00:09:00,
2013-06-02 20:14:00,71.9,66.5,29.85,North,360,3.0,3.0,83,0.11,,SKC,0.69,VWS V14.00,2013-06-03 00:14:00,
2013-06-02 20:19:00,71.9,66.5,29.85,North,360,3.0,3.0,83,0.01,,SKC,0.69,VWS V14.00,2013-06-03 00:19:00,
2013-06-02 20:24:00,71.9,66.5,29.85,North,360,3.0,3.0,83,0.01,,SKC,0.69,VWS V14.00,2013-06-03 00:24:00,
2013-06-02 20:29:00,71.9,66.5,29.85,North,360,3.0,3.0,83,0.00,,SKC,0.69,VWS V14.00,2013-06-03 00:29:00,
2013-06-02 20:34:00,71.9,66.5,29.86,North,360,3.0,3.0,83,0.00,,SKC,0.69,VWS V14.00,2013-06-03 00:34:00,
2013-06-02 20:39:00,71.9,66.5,29.86,North,360,3.0,3.0,83,0.00,,SKC,0.69,VWS V14.00,2013-06-03 00:39:00,
2013-06-02 20:44:00,71.9,66.5,29.86,North,360,3.0,3.0,83,0.00,,SKC,0.69,VWS V14.00,2013-06-03 00:44:00,
2013-06-02 20:49:00,71.9,66.5,29.86,North,360,3.0,3.0,83,0.00,,SKC,0.69,VWS V14.00,2013-06-03 00:49:00,
2013-06-02 20:54:00,71.9,66.5,29.86,North,360,3.0,3.0,83,0.00,,SKC,0.69,VWS V14.00,2013-06-03 00:54:00,
2013-06-02 20:59:00,71.9,66.5,29.86,North,360,3.0,3.0,83,0.00,,SKC,0.69,VWS V14.00,2013-06-03 00:59:00,
2013-06-02 21:04:00,71.9,66.5,29.86,North,360,3.0,3.0,83,0.00,,SKC,0.69,VWS V14.00,2013-06-03 01:04:00,
2013-06-02 21:09:00,71.9,66.5,29.86,North,360,3.0,3.0,83,0.00,,SKC,0.69,VWS V14.00,2013-06-03 01:09:00,
2013-06-02 21:14:00,71.9,66.5,29.86,North,360,3.0,3.0,83,0.00,,SKC,0.69,VWS V14.00,2013-06-03 01:14:00,
2013-06-02 21:19:00,71.9,66.5,29.86,North,360,3.0,3.0,83,0.00,,SKC,0.69,VWS V14.00,2013-06-03 01:19:00,
2013-06-02 21:24:00,71.9,66.5,29.86,North,360,3.0,3.0,83,0.00,,SKC,0.69,VWS V14.00,2013-06-03 01:24:00,
2013-06-02 21:29:00,71.9,66.5,29.86,North,360,3.0,3.0,83,0.00,,SKC,0.69,VWS V14.00,2013-06-03 01:29:00,
2013-06-02 21:34:00,71.9,66.5,29.86,North,360,3.0,3.0,83,0.00,,SKC,0.69,VWS V14.00,2013-06-03 01:34:00,
2013-06-02 21:39:00,71.9,66.5,29.86,North,360,3.0,3.0,83,0.00,,SKC,0.69,VWS V14.00,2013-06-03 01:39:00,
2013-06-02 21:44:00,71.9,66.5,29.86,North,360,3.0,3.0,83,0.00,,SKC,0.69,VWS V14.00,2013-06-03 01:44:00,
2013-06-02 21:49:00,71.9,66.5,29.86,North,360,3.0,3.0,83,0.00,,SKC,0.69,VWS V14.00,2013-06-03 01:49:00,
2013-06-02 21:54:00,71.9,66.5,29.86,North,360,3.0,3.0,83,0.00,,SKC,0.69,VWS V14.00,2013-06-03 01:54:00,
2013-06-02 21:59:00,71.9,66.5,29.86,North,360,3.0,3.0,83,0.00,,SKC,0.69,VWS V14.00,2013-06-03 01:59:00,
2013-06-02 22:04:00,71.9,66.5,29.86,North,360,3.0,3.0,83,0.00,,SKC,0.69,VWS V14.00,2013-06-03 02:04:00,
2013-06-02 22:09:00,71.9,66.5,29.86,North,360,3.0,3.0,83,0.00,,SKC,0.69,VWS V14.00,2013-06-03 02:09:00,
2013-06-02 22:14:00,71.9,66.5,29.86,North,360,3.0,3.0,83,0.00,,SKC,0.69,VWS V14.00,2013-06-03 02:14:00,
2013-06-02 22:19:00,71.9,66.5,29.86,North,360,3.0,3.0,83,0.00,,SKC,0.69,VWS V14.00,2013-06-03 02:19:00,
2013-06-02 22:24:00,71.9,66.5,29.87,North,360,3.0,3.0,83,0.00,,SKC,0.69,VWS V14.00,2013-06-03 02:24:00,
2013-06-02 22:29:00,71.9,66.5,29.87,North,360,3.0,3.0,83,0.00,,SKC,0.69,VWS V14.00,2013-06-03 02:29:00,
2013-06-02 22:34:00,71.9,66.5,29.85,North,360,3.0,3.0,83,0.00,,SKC,0.69,VWS V14.00,2013-06-03 02:34:00,
2013-06-02 22:39:00,71.9,66.5,29.85,North,360,3.0,3.0,83,0.00,,SKC,0.69,VWS V14.00,2013-06-03 02:39:00,
2013-06-02 22:44:00,71.9,66.5,29.85,North,360,3.0,3.0,83,0.00,,SKC,0.69,VWS V14.00,2013-06-03 02:44:00,
2013-06-02 22:49:00,71.9,66.5,29.85,North,360,3.0,3.0,83,0.00,,SKC,0.69,VWS V14.00,2013-06-03 02:49:00,
2013-06-02 22:54:00,71.9,66.5,29.85,North,360,3.0,3.0,83,0.00,,SKC,0.69,VWS V14.00,2013-06-03 02:54:00,
2013-06-02 22:59:00,71.9,66.5,29.85,North,360,3.0,3.0,83,0.00,,SKC,0.69,VWS V14.00,2013-06-03 02:59:00,
2013-06-02 23:04:00,71.9,66.5,29.85,North,360,3.0,3.0,83,0.00,,SKC,0.69,VWS V14.00,2013-06-03 03:04:00,
2013-06-02 23:09:00,71.9,66.5,29.85,North,360,3.0,3.0,83,0.00,,SKC,0.69,VWS V14.00,2013-06-03 03:09:00,
2013-06-02 23:14:00,71.9,66.5,29.85,North,360,3.0,3.0,83,0.00,,SKC,0.69,VWS V14.00,2013-06-03 03:14:00,
2013-06-02 23:19:00,71.9,66.5,29.85,North,360,3.0,3.0,83,0.00,,SKC,0.69,VWS V14.00,2013-06-03 03:19:00,
2013-06-02 23:24:00,71.9,66.5,29.84,North,360,3.0,3.0,83,0.00,,SKC,0.00,VWS V14.00,2013-06-03 03:24:00,
2013-06-02 23:29:00,71.9,66.5,29.84,North,360,3.0,3.0,83,0.00,,SKC,0.00,VWS V14.00,2013-06-03 03:29:00,
2013-06-02 23:34:00,71.9,66.5,29.91,North,360,3.0,3.0,83,0.00,,SKC,0.00,VWS V14.00,2013-06-03 03:34:00,
2013-06-02 23:39:00,71.9,66.5,29.91,North,360,3.0,3.0,83,0.00,,SKC,0.00,VWS V14.00,2013-06-03 03:39:00,
2013-06-02 23:44:00,71.9,66.5,29.91,North,360,3.0,3.0,83,0.00,,SKC,0.00,VWS V14.00,2013-06-03 03:44:00,
2013-06-02 23:49:00,71.9,66.5,29.90,North,360,3.0,3.0,83,0.00,,SKC,0.00,VWS V14.00,2013-06-03 03:49:00,
2013-06-02 23:54:00,71.9,66.5,29.90,North,360,3.0,3.0,83,0.00,,SKC,0.00,VWS V14.00,2013-06-03 03:54:00,
2013-06-02 23:59:00,71.9,66.5,29.90,North,360,3.0,3.0,83,0.00,,SKC,0.00,VWS V14.00,2013-06-03 03:59:00,